Torna al catalogo

STARLINK-36237

AttivoComunicazioniVLEO
NORAD 68337·PAYLOAD·🇺🇸 United States

Lanciato Mar 22, 2026 da Cape Canaveral Space Force Station

Loading…

Prossimi Passaggi (prossime 24 ore)

TLE

AggiornatoSource: CelesTrak SupGP

Epoca: Sep 14, 2026, 21:00 UTC

1 68337C 26059S   26257.87548611  .00007387  00000+0  21815-3 0  2572
2 68337  53.1587 181.8496 0001363 104.5674  71.8122 15.34400728    11

Traccia STARLINK-36237 in tempo reale con AllMySat

Download on the App Store